Location: Izdebno
(52.6670°N, 16.2170°E)
Time: 04:40:35
(UTC+02:00)

SR - Pass Details

Date: 29 February 2024
Orbit: 577 x 862 km, 66.7° (Epoch: 22 April)

Event Time Altitude Azimuth Distance (km) Brightness Sun altitude
Rises 15:59:06 0° 247° (WSW) 3,433 ? 12.4°
Reaches altitude 10° 16:01:47 10° 255° (WSW) 2,483 ? 12.0°
Maximum altitude 16:07:10 39° 324° (NW) 1,215 ? 11.3°
Drops below altitude 10° 16:12:19 10° 33° (NNE) 2,361 ? 10.6°
Sets 16:14:49 0° 41° (NE) 3,247 ? 10.3°
